Retour au catalogue

COSMOS 623

ActifMilitaireLEO
NORAD 6991·PAYLOAD·🇷🇺 Russia

Lancé Dec 19, 1973 depuis Plesetsk Cosmodrome

Loading…

Prochains Passages (prochaines 24 heures)

TLE

FraisSource: Space-Track

Époque: Sep 14, 2026, 09:53 UTC

1 06991U 73104G   26257.41237435 -.00000025  00000-0 -48799-4 0  9991
2 06991  74.0265 236.5537 0063567 303.2955 129.6215 12.56959341419887

Suivez COSMOS 623 en temps réel avec AllMySat

Download on the App Store